DUCHIFAT-1

Last updated on Fri Sep 18 2026 00:03:13 GMT+0000 (Coordinated Universal Time)

1 40021U 14033M 26260.35376336 .11546644 29318-5 71988-3 0 9995 2 40021 98.0032 334.7798 0013138 273.3726 86.6069 16.40544584670300

Satellite not in orbit

DUCHIFAT-1